Location: Ferintosh
(52.7647°N, 112.9692°W)
Time: 13:44:52
(UTC+00:00)

Transit 2A - Pass Details

Date: 25 May 2024
Orbit: 592 x 959 km, 66.7° (Epoch: 23 June)

Event Time Altitude Azimuth Distance (km) Brightness Sun altitude
Rises 11:38:14 0° 316° (NW) 3,279 9.2 1.4°
Reaches altitude 10° 11:40:52 10° 327° (NNW) 2,410 8.6 1.7°
Maximum altitude 11:45:47 30° 28° (NNE) 1,507 8.5 2.3°
Drops below altitude 10° 11:51:03 10° 89° (E) 2,602 9.9 3.0°
Sets 11:53:59 0° 100° (E) 3,583 10.3 3.4°
